Location: Unspecified
(0.0000°N, 0.0000°E)
Time: 03:40:17
(UTC+01:00)

GPS 2-12 Rocket1 - Visible Passes

Search period start: 24 November 2014 00:00
Search period end: 04 December 2014 00:00
Orbit: 591 x 659 km, 20.0° (Epoch: 23 November)

Date Brightness Start Highest point End Pass type
(mag) Time Alt. Az. Time Alt. Az. Time Alt. Az.
24 Nov 5.2 04:27:28 21° ENE 04:27:28 21° ENE 04:29:03 10° ENE visible
24 Nov 3.9 06:04:38 12° W 06:08:11 31° NNW 06:12:08 10° NE visible
24 Nov 6.0 19:59:49 10° SSW 20:01:06 11° SSW 20:02:24 10° S visible
25 Nov 4.7 04:44:52 26° NE 04:44:52 26° NE 04:46:54 10° ENE visible
26 Nov 4.6 05:02:12 24° NNE 05:02:12 24° NNE 05:04:27 10° NE visible
27 Nov 4.7 05:19:28 19° N 05:19:28 19° N 05:21:43 10° NNE visible
28 Nov 5.0 05:36:38 13° NNW 05:36:38 13° NNW 05:38:33 10° NNE visible
02 Dec 5.6 20:41:22 10° S 20:42:58 11° SSE 20:43:45 11° SSE visible
03 Dec 5.4 20:57:55 10° SSW 21:00:21 17° S 21:00:21 17° S visible
